Regional Weather Roundup
Issued by NWS

Home | Current Version | Previous Version | Graphics & Text | Print | Product List | Glossary Off
Versions: 1 2 3 4 5 6 7 8 9 10 11 12 13 14 15 16 17 18 19 20 21 22 23 24 25 26 27 28 29 30 31 32 33 34 35 36 37 38 39 40 41 42 43 44 45 46 47 48 49 50

644
ASUS43 KDMX 220601
RWRIA

WEATHER ROUNDUP FOR IOWA
NATIONAL WEATHER SERVICE DES MOINES IA
1200 AM CST SUN JAN 22 2017

NOTE: "FAIR" INDICATES FEW OR NO CLOUDS BELOW 12,000 FEET WITH NO
SIGNIFICANT WEATHER AND/OR OBSTRUCTIONS TO VISIBILITY.

* - THESE STATIONS ARE NOT NWS STATIONS...THUS NOT UNDER NWS
QUALITY CONTROL.  THEY ALSO DO NOT REPORT WEATHER SUCH
AS PRECIPITATION OR FOG.

IAZ001>003-012>014-020>022-031>034-043>046-220700-
   NORTHWEST IOWA

CITY           SKY/WX    TMP DP  RH WIND       PRES   REMARKS
CARROLL *      PTCLDY    32  32 100 NW8       29.57R WCI  25
CHEROKEE *     CLOUDY    32  31  95 NW9       29.59R WCI  24
DENISON *        N/A     30  30 100 CALM      29.56S
LE MARS *      CLOUDY    32  30  93 NW6       29.61R WCI  26
ORANGE CITY *  CLOUDY    32  30  93 NW7       29.58S WCI  26
SHELDON *      CLOUDY    32  32 100 NW10      29.56S WCI  24
SIOUX CITY     CLEAR     29  27  92 NW5       29.61R FOG     WCI  24
6HR MIN TEMP:  27; 6HR MAX TEMP:  36;

SPENCER          N/A    N/A N/A N/A MISG      29.57R
STORM LAKE *   CLOUDY    32  30  93 NW13      29.57S WCI  22
$$

IAZ055>058-069>071-079>083-090>094-220700-
   SOUTHWEST IOWA

CITY           SKY/WX    TMP DP  RH WIND       PRES   REMARKS
ATLANTIC *     FOG       28  28 100 CALM      29.56F VSB<1/4
AUDUBON *      FOG       30  28  93 NW3       29.57S VSB 1/4
CLARINDA *     FOG       30  30 100 CALM      29.58S VSB<1/4
COUNCIL BLFS * CLEAR     34  34 100 N7        29.57R WCI  28
CRESTON *      FOG       34  34 100 W3        29.57S VSB<1/4
HARLAN  *      CLEAR     30  30 100 N6        29.60R FOG     WCI  24
LAMONI         FOG       36  35  96 CALM      29.55S VSB 1/4
6HR MIN TEMP:  34; 6HR MAX TEMP:  44;

RED OAK *      FOG       28  28 100 CALM      29.57S VSB 1/4
SHENANDOAH *   CLEAR     30  30 100 NE5       29.57F WCI  25
$$

IAZ047>049-059>061-072>074-084-220700-
   CENTRAL IOWA

CITY           SKY/WX    TMP DP  RH WIND       PRES   REMARKS
AMES           PTCLDY    30  30 100 N6        29.56S FOG     WCI  24
6HR MIN TEMP:  29; 6HR MAX TEMP:  37;

ANKENY *       FOG       28  28 100 CALM      29.57F VSB<1/4
BOONE *        FOG       36  36 100 NW5       29.55S VSB 1/2 WCI  32
CHARITON *     FOG       28  28 100 CALM      29.55F VSB<1/4
DES MOINES     FOG       31  30  96 S5        29.57S VSB 1/8 WCI  26
6HR MIN TEMP:  30; 6HR MAX TEMP:  41;

GRINNELL*      FOG       30  30  99 SE3       29.57S VSB 1/4
KNOXVILLE *    FOG       32  32 100 CALM      29.55F VSB<1/4
MARSHALLTOWN   FOG       32  32 100 CALM      29.55S VSB 1/4
6HR MIN TEMP:  31; 6HR MAX TEMP:  40;

NEWTON *       FOG       32  32 100 SE3       29.56S VSB<1/4
PELLA *        FOG       32  31  98 SE3       29.58F VSB<1/4
PERRY *        FOG       33  33  99 NW5       29.57R VSB 1/4 WCI  29
$$

IAZ004>006-015-016-023>025-035-036-220700-
   NORTH CENTRAL IOWA

CITY           SKY/WX    TMP DP  RH WIND       PRES   REMARKS
ALGONA *       CLOUDY    32  32 100 W6        29.56S WCI  26
CLARION *      CLOUDY    34  34 100 W8        29.56S WCI  27
ESTHERVILLE    CLOUDY    32  31  96 W9        29.55R WCI  24
6HR MIN TEMP:  31; 6HR MAX TEMP:  33;

FORT DODGE *   CLEAR     30  27  86 CALM      29.57S
MASON CITY     CLOUDY    32  30  92 W9        29.56S WCI  24
6HR MIN TEMP:  32; 6HR MAX TEMP:  37;

FOREST CITY *  CLOUDY    32  32 100 W3        29.55S FOG
WEBSTER CITY * CLOUDY    34 N/A N/A NW7       29.55R WCI  28
IOWA FALLS *   CLOUDY    35  35  99 W6        29.57S FOG     WCI  30
$$

IAZ007>011-017>019-026>030-037>042-050>054-066-220700-
   NORTHEAST IOWA

CITY           SKY/WX    TMP DP  RH WIND       PRES   REMARKS
CEDAR RAPIDS   FOG       33  33 100 S3        29.57S VSB 3/4
6HR MIN TEMP:  33; 6HR MAX TEMP:  41;

CHARLES CITY * CLOUDY    34  34 100 SW3       29.56S FOG
CLINTON *      CLOUDY    40  38  93 SW5       29.59F
DECORAH *      CLOUDY    36  36 100 VRB3      29.54S FOG
DUBUQUE        FOG       36  36 100 SW3       29.57S VSB 3/4
6HR MIN TEMP:  36; 6HR MAX TEMP:  41;

MONTICELLO *   CLEAR     36  36 100 CALM      29.58S FOG
OELWEIN *      PTCLDY    34  34 100 W5        29.56S FOG     WCI  30
WATERLOO       FOG       30  30 100 CALM      29.56S VSB 1/4
6HR MIN TEMP:  30; 6HR MAX TEMP:  41;

$$

IAZ064-065-067-068-078-220700-
   EAST CENTRAL IOWA

CITY           SKY/WX    TMP DP  RH WIND       PRES   REMARKS
DAVENPORT      MOCLDY    40  36  86 NW5       29.59F
6HR MIN TEMP:  40; 6HR MAX TEMP:  43;

IOWA CITY      FOG       34  33  96 CALM      29.59F VSB 3/4
6HR MIN TEMP:  35; 6HR MAX TEMP:  45;

MUSCATINE *    MOCLDY    36  34  93 CALM      29.59S FOG
QUAD CITIES    CLOUDY    43  37  79 NW6       29.58F
6HR MIN TEMP:  41; 6HR MAX TEMP:  45;

$$

IAZ062-063-075>077-085>089-095>099-220700-
   SOUTHEAST IOWA

CITY           SKY/WX    TMP DP  RH WIND       PRES   REMARKS
BURLINGTON     FOG       36  36 100 CALM      29.57F VSB 3/4
6HR MIN TEMP:  33; 6HR MAX TEMP:  46;

FAIRFIELD *    FOG       28  28 100 CALM      29.56F VSB<1/4
FORT MADISON * CLEAR     36  36 100 CALM      29.59S FOG
KEOKUK *       FOG       37 N/A N/A CALM      29.58R VSB 1/4
OSKALOOSA *    FOG       32  32  99 CALM      29.57F VSB 1/4
CENTERVILLE *  FOG       28  28 100 CALM      29.56F VSB 3/4
OTTUMWA        FOG       30  30 100 CALM      29.55F VSB 1/4
6HR MIN TEMP:  30; 6HR MAX TEMP:  44;

WASHINGTON *   FOG       32  32 100 NE3       29.58F VSB<1/4
$$

ABBREVIATIONS USED IN REMARKS
   TC - TEMPERATURES IN CELSIUS
  WCI - WIND CHILL INDEX
   HX - HEAT INDEX
  VSB - VISIBILITY
$$





USA.gov is the U.S. government's official web portal to all federal, state and local government web resources and services.